This is the latest recevied weather packets stored in our database for station/object K3MV-13. If no packets are shown the sender has not sent any weather packets the latest 10 day(s).
| Time | Temp. | Humidity | Pressure | Rain* | Wind** | Luminosity | Snow |
|---|---|---|---|---|---|---|---|
| 1777860121 | 5.56° C | 64% | 1014.7 hPa | 0 mm | - | 0 W/m² | - |
| 1777859818 | 5.56° C | 64% | 1014.7 hPa | 0 mm | - | 0 W/m² | - |
| 1777859514 | 5.56° C | 63% | 1014.7 hPa | 0 mm | - | 0 W/m² | - |
| 1777859210 | 6.11° C | 62% | 1014.6 hPa | 0 mm | - | 0 W/m² | - |
| 1777858908 | 6.11° C | 62% | 1014.6 hPa | 0 mm | - | 0 W/m² | - |
| 1777858605 | 6.11° C | 62% | 1014.7 hPa | 0 mm | - | 0 W/m² | - |
| 1777858302 | 6.11° C | 62% | 1014.6 hPa | 0 mm | - | 0 W/m² | - |
| 1777857999 | 6.11° C | 63% | 1014.4 hPa | 0 mm | - | 0 W/m² | - |
| 1777857697 | 6.11° C | 62% | 1014.6 hPa | 0 mm | - | 0 W/m² | - |
| 1777857393 | 6.67° C | 60% | 1014.4 hPa | 0 mm | - | 0 W/m² | - |
| 1777857090 | 7.22° C | 58% | 1014.3 hPa | 0 mm | - | 0 W/m² | - |
| 1777856786 | 7.78° C | 54% | 1014.4 hPa | 0 mm | - | 0 W/m² | - |
| 1777856482 | 7.78° C | 54% | 1014.6 hPa | 0 mm | - | 0 W/m² | - |
| 1777856179 | 7.78° C | 51% | 1014.7 hPa | 0 mm | - | 0 W/m² | - |
| 1777855876 | 7.78° C | 52% | 1014.4 hPa | 0 mm | - | 0 W/m² | - |
| 1777855574 | 8.33° C | 51% | 1014.6 hPa | 0 mm | - | 0 W/m² | - |
| 1777855271 | 8.33° C | 50% | 1014.6 hPa | 0 mm | - | 0 W/m² | - |
| 1777854967 | 8.33° C | 50% | 1014.3 hPa | 0 mm | - | 0 W/m² | - |
| 1777854664 | 8.33° C | 49% | 1014.3 hPa | 0 mm | - | 0 W/m² | - |
| 1777854361 | 8.33° C | 52% | 1014.2 hPa | 0 mm | - | 0 W/m² | - |
| 1777854058 | 8.89° C | 50% | 1014.2 hPa | 0 mm | - | 1 W/m² | - |
| 1777853756 | 8.89° C | 48% | 1014.1 hPa | 0 mm | - | 2 W/m² | - |
| 1777853451 | 9.44° C | 48% | 1014.3 hPa | 0 mm | - | 3 W/m² | - |
| 1777853149 | 9.44° C | 47% | 1014.1 hPa | 0 mm | - | 5 W/m² | - |
| 1777852846 | 9.44° C | 47% | 1014.2 hPa | 0 mm | - | 7 W/m² | - |
* Rain latest hour (hover to see other rain measurements)
** Current wind speed in m/s (hover to see current wind gust speed)